軌道要素
Epoch 2023 Oct. 23.0 TT = JDT 2460240.5
T 2023 Nov. 4.12093 TT MPCW
q 4.1326101 (2000.0) P Q
n 0.09560864 Peri. 169.36631 +0.34906160 -0.92200346
a 4.7366498 Node 260.04175 +0.84680495 +0.38691160
e 0.1275247 Incl. 9.79308 +0.40134446 -0.01445805
P 10.31
From 160 observations 2011 Oct. 24-2016 Apr. 1, mean residual 0".4.
|